^^
Station Historical Data
Daily Summary for June 22, 2021 Units:  English    Metric   Both
Daily Weekly Monthly Yearly
  High: Low: Average:
Temperature: 62.3 °F 51.6 °F 55 °F
Dew Point: 49.7 °F 41.4 °F 44 °F
Humidity: 78% 57% 67%
Wind Speed: 8mph 2mph 3.4mph
Wind Gust: 10mph - -
Wind- - SW
Pressure: 29.94 in 29.82 in -
Precipitation: 0.02 in    
 
 
Tabular Data for June 22, 2021
Time Temperature Dew Point Pressure Wind Wind Speed Wind Gust Humidity Rainfall Rate (Hourly) solar
00:00 52.4 °F 41.8 °F 29.82 in NNE 5 mph 5 mph 67% 0.00 in 0 W/m2
00:05 52.3 °F 42 °F 29.82 in NNE 5 mph 5 mph 68% 0.00 in 0 W/m2
00:10 52.4 °F 42.1 °F 29.82 in North 4 mph 4 mph 68% 0.00 in 0 W/m2
00:15 52.3 °F 41.7 °F 29.82 in North 4 mph 4 mph 67% 0.00 in 0 W/m2
00:20 52.3 °F 42 °F 29.82 in SW 5 mph 5 mph 68% 0.00 in 0 W/m2
00:25 52.3 °F 42 °F 29.82 in NNE 5 mph 5 mph 68% 0.00 in 0 W/m2
00:30 52.3 °F 42 °F 29.83 in NNW 5 mph 5 mph 68% 0.00 in 0 W/m2
00:35 52.3 °F 41.7 °F 29.83 in WNW 5 mph 10 mph 67% 0.00 in 0 W/m2
00:40 52.2 °F 41.6 °F 29.83 in NE 4 mph 4 mph 67% 0.00 in 0 W/m2
00:45 52.3 °F 42 °F 29.83 in WNW 4 mph 4 mph 68% 0.00 in 0 W/m2
00:50 52.2 °F 42 °F 29.83 in SE 4 mph 4 mph 68% 0.00 in 0 W/m2
00:55 52.2 °F 42 °F 29.83 in NW 4 mph 4 mph 68% 0.00 in 0 W/m2
01:00 52.2 °F 42 °F 29.84 in North 4 mph 6 mph 68% 0.00 in 0 W/m2
01:05 52.1 °F 41.9 °F 29.84 in East 4 mph 6 mph 68% 0.00 in 0 W/m2
01:10 52.2 °F 42.3 °F 29.84 in East 4 mph 4 mph 69% 0.00 in 0 W/m2
01:15 52.1 °F 42.2 °F 29.84 in NNW 3 mph 5 mph 69% 0.00 in 0 W/m2
01:20 52.1 °F 41.9 °F 29.84 in NW 4 mph 4 mph 68% 0.00 in 0 W/m2
01:25 52.1 °F 42.2 °F 29.84 in NW 4 mph 4 mph 69% 0.00 in 0 W/m2
01:30 52.1 °F 41.5 °F 29.84 in NNE 4 mph 7 mph 67% 0.00 in 0 W/m2
01:35 52.1 °F 41.5 °F 29.84 in North 4 mph 7 mph 67% 0.00 in 0 W/m2
01:40 52.1 °F 42.2 °F 29.84 in NW 4 mph 4 mph 69% 0.00 in 0 W/m2
01:45 52.1 °F 41.9 °F 29.84 in NNW 4 mph 4 mph 68% 0.00 in 0 W/m2
01:50 52 °F 41.8 °F 29.84 in West 4 mph 4 mph 68% 0.00 in 0 W/m2
01:55 52 °F 42.1 °F 29.84 in NNE 5 mph 5 mph 69% 0.00 in 0 W/m2
02:00 51.9 °F 41.7 °F 29.84 in NW 5 mph 5 mph 68% 0.00 in 0 W/m2
02:05 51.9 °F 42 °F 29.84 in WSW 4 mph 5 mph 69% 0.00 in 0 W/m2
02:10 52 °F 41.4 °F 29.84 in North 4 mph 4 mph 67% 0.00 in 0 W/m2
02:15 51.9 °F 41.7 °F 29.84 in NW 4 mph 5 mph 68% 0.00 in 0 W/m2
02:20 51.9 °F 42 °F 29.84 in NW 4 mph 4 mph 69% 0.00 in 0 W/m2
02:25 51.9 °F 42.4 °F 29.84 in NE 4 mph 4 mph 70% 0.00 in 0 W/m2
02:30 51.9 °F 42.4 °F 29.84 in NNW 3 mph 3 mph 70% 0.00 in 0 W/m2
02:35 51.9 °F 42 °F 29.84 in WSW 3 mph 3 mph 69% 0.00 in 0 W/m2
02:40 51.9 °F 42 °F 29.84 in ESE 4 mph 4 mph 69% 0.00 in 0 W/m2
02:45 52 °F 42.5 °F 29.83 in NW 4 mph 5 mph 70% 0.00 in 0 W/m2
02:50 51.9 °F 42 °F 29.83 in NW 4 mph 4 mph 69% 0.00 in 0 W/m2
02:55 52 °F 42.5 °F 29.83 in NNE 4 mph 4 mph 70% 0.00 in 0 W/m2
03:00 52.1 °F 42.2 °F 29.83 in NNW 3 mph 9 mph 69% 0.00 in 0 W/m2
03:05 52.1 °F 41.9 °F 29.83 in NNW 4 mph 9 mph 68% 0.00 in 0 W/m2
03:10 52.2 °F 41.6 °F 29.83 in NE 4 mph 4 mph 67% 0.00 in 0 W/m2
03:15 52.3 °F 42 °F 29.83 in NW 4 mph 4 mph 68% 0.00 in 0 W/m2
03:20 52.4 °F 42.1 °F 29.83 in East 4 mph 4 mph 68% 0.00 in 0 W/m2
03:25 52.5 °F 42.2 °F 29.83 in NNE 4 mph 4 mph 68% 0.00 in 0 W/m2
03:30 52.5 °F 42.2 °F 29.84 in NNW 3 mph 4 mph 68% 0.00 in 0 W/m2
03:35 52.5 °F 42.6 °F 29.84 in SW 3 mph 4 mph 69% 0.00 in 0 W/m2
03:40 52.5 °F 42.2 °F 29.83 in NNW 4 mph 4 mph 68% 0.00 in 0 W/m2
03:45 52.5 °F 42.2 °F 29.84 in NW 4 mph 4 mph 68% 0.00 in 0 W/m2
03:50 52.5 °F 42.6 °F 29.83 in NNW 4 mph 4 mph 69% 0.00 in 0 W/m2
03:55 52.5 °F 43 °F 29.83 in North 3 mph 4 mph 70% 0.00 in 0 W/m2
04:00 52.4 °F 42.1 °F 29.83 in NNW 4 mph 5 mph 68% 0.00 in 0 W/m2
04:05 52.3 °F 42 °F 29.84 in NW 4 mph 5 mph 68% 0.00 in 0 W/m2
04:10 52.3 °F 42.4 °F 29.84 in ESE 3 mph 3 mph 69% 0.00 in 0 W/m2
04:15 52.2 °F 42.3 °F 29.84 in WNW 3 mph 5 mph 69% 0.00 in 0 W/m2
04:20 52.1 °F 41.9 °F 29.84 in NW 3 mph 3 mph 68% 0.00 in 0 W/m2
04:25 52.1 °F 42.2 °F 29.84 in NNW 4 mph 4 mph 69% 0.00 in 0 W/m2
04:30 52.1 °F 42.2 °F 29.84 in NNW 3 mph 6 mph 69% 0.00 in 0 W/m2
04:35 52.1 °F 42.2 °F 29.84 in NNW 3 mph 6 mph 69% 0.00 in 0 W/m2
04:40 52.1 °F 42.2 °F 29.84 in NNW 3 mph 3 mph 69% 0.00 in 0 W/m2
04:45 52.1 °F 42.2 °F 29.84 in NE 3 mph 3 mph 69% 0.00 in 0 W/m2
04:50 52 °F 42.1 °F 29.84 in NW 3 mph 7 mph 69% 0.00 in 0 W/m2
04:55 52 °F 42.5 °F 29.85 in NW 3 mph 7 mph 70% 0.00 in 0 W/m2
05:00 52 °F 42.5 °F 29.85 in West 3 mph 3 mph 70% 0.00 in 0 W/m2
05:05 52 °F 42.5 °F 29.85 in NE 3 mph 3 mph 70% 0.00 in 0 W/m2
05:10 51.9 °F 42.4 °F 29.85 in NNW 3 mph 3 mph 70% 0.00 in 0 W/m2
05:15 51.9 °F 42.4 °F 29.85 in ENE 3 mph 3 mph 70% 0.00 in 0 W/m2
05:20 51.9 °F 42.4 °F 29.85 in NW 3 mph 3 mph 70% 0.00 in 0 W/m2
05:25 51.8 °F 42.7 °F 29.85 in East 3 mph 3 mph 71% 0.00 in 0 W/m2
05:30 51.8 °F 43.1 °F 29.85 in NNW 3 mph 5 mph 72% 0.00 in 0 W/m2
05:35 51.8 °F 42.7 °F 29.85 in NNW 3 mph 5 mph 71% 0.00 in 0 W/m2
05:40 51.7 °F 42.6 °F 29.85 in WNW 3 mph 3 mph 71% 0.00 in 0 W/m2
05:45 51.7 °F 42.6 °F 29.86 in WNW 3 mph 6 mph 71% 0.00 in 0 W/m2
05:50 51.7 °F 43 °F 29.86 in NW 2 mph 6 mph 72% 0.00 in 5 W/m2
05:55 51.7 °F 43 °F 29.86 in WSW 3 mph 6 mph 72% 0.00 in 5 W/m2
06:00 51.6 °F 42.5 °F 29.86 in NNW 3 mph 6 mph 71% 0.00 in 7 W/m2
06:05 51.7 °F 43 °F 29.86 in NNW 3 mph 6 mph 72% 0.00 in 9 W/m2
06:10 51.6 °F 42.9 °F 29.86 in NW 4 mph 5 mph 72% 0.00 in 11 W/m2
06:15 51.7 °F 43 °F 29.86 in NNW 4 mph 7 mph 72% 0.00 in 12 W/m2
06:20 51.6 °F 42.9 °F 29.87 in NNW 5 mph 5 mph 72% 0.00 in 14 W/m2
06:25 51.7 °F 43 °F 29.86 in WNW 4 mph 5 mph 72% 0.00 in 16 W/m2
06:30 51.7 °F 42.6 °F 29.86 in NNW 3 mph 3 mph 71% 0.00 in 18 W/m2
06:35 51.7 °F 43 °F 29.86 in NNE 2 mph 3 mph 72% 0.00 in 21 W/m2
06:40 51.7 °F 42.6 °F 29.87 in NNW 3 mph 3 mph 71% 0.00 in 30 W/m2
06:45 51.7 °F 43 °F 29.87 in NW 3 mph 3 mph 72% 0.00 in 30 W/m2
06:50 51.9 °F 42.8 °F 29.87 in NW 3 mph 3 mph 71% 0.00 in 23 W/m2
06:55 51.8 °F 42.7 °F 29.88 in NNW 3 mph 3 mph 71% 0.00 in 25 W/m2
07:00 52 °F 42.9 °F 29.88 in NE 3 mph 3 mph 71% 0.00 in 26 W/m2
07:05 52.1 °F 43 °F 29.88 in West 2 mph 3 mph 71% 0.00 in 28 W/m2
07:10 52.2 °F 42.7 °F 29.88 in WNW 3 mph 3 mph 70% 0.00 in 35 W/m2
07:15 52.3 °F 42.8 °F 29.88 in NW 3 mph 4 mph 70% 0.00 in 28 W/m2
07:20 52.4 °F 43.3 °F 29.88 in NW 4 mph 4 mph 71% 0.00 in 30 W/m2
07:25 52.6 °F 43.5 °F 29.89 in NW 3 mph 4 mph 71% 0.00 in 30 W/m2
07:30 52.7 °F 42.8 °F 29.89 in North 3 mph 5 mph 69% 0.00 in 42 W/m2
07:35 52.8 °F 42.9 °F 29.89 in NW 4 mph 5 mph 69% 0.00 in 197 W/m2
07:40 52.9 °F 43.4 °F 29.89 in North 3 mph 6 mph 70% 0.00 in 221 W/m2
07:45 53 °F 43.1 °F 29.90 in East 3 mph 6 mph 69% 0.00 in 236 W/m2
07:50 53.2 °F 42.9 °F 29.90 in North 3 mph 5 mph 68% 0.00 in 250 W/m2
07:55 53.3 °F 43 °F 29.90 in North 2 mph 5 mph 68% 0.00 in 260 W/m2
08:00 53.4 °F 43.1 °F 29.90 in NE 2 mph 5 mph 68% 0.00 in 274 W/m2
08:05 53.5 °F 42.4 °F 29.90 in NW 3 mph 5 mph 66% 0.00 in 290 W/m2
08:10 53.6 °F 43.3 °F 29.90 in NNW 2 mph 2 mph 68% 0.00 in 304 W/m2
08:15 53.9 °F 43.6 °F 29.91 in NW 2 mph 6 mph 68% 0.00 in 318 W/m2
08:20 54 °F 43.3 °F 29.91 in NW 3 mph 8 mph 67% 0.00 in 332 W/m2
08:25 54.2 °F 43.9 °F 29.91 in North 3 mph 8 mph 68% 0.00 in 346 W/m2
08:30 54.3 °F 44 °F 29.92 in NW 3 mph 3 mph 68% 0.00 in 359 W/m2
08:35 54.5 °F 44.2 °F 29.92 in North 3 mph 4 mph 68% 0.00 in 373 W/m2
08:40 54.6 °F 44.2 °F 29.92 in NNE 3 mph 3 mph 68% 0.00 in 390 W/m2
08:45 54.7 °F 43.6 °F 29.93 in NNW 2 mph 5 mph 66% 0.00 in 341 W/m2
08:50 54.8 °F 43.3 °F 29.93 in NW 3 mph 5 mph 65% 0.00 in 417 W/m2
08:55 55 °F 43.8 °F 29.93 in NNW 4 mph 7 mph 66% 0.00 in 431 W/m2
09:00 55.1 °F 43.9 °F 29.93 in NNW 4 mph 4 mph 66% 0.00 in 443 W/m2
09:05 55.2 °F 44 °F 29.93 in WNW 3 mph 4 mph 66% 0.00 in 455 W/m2
09:10 55.3 °F 43.7 °F 29.93 in West 3 mph 3 mph 65% 0.00 in 468 W/m2
09:15 55.5 °F 43.9 °F 29.93 in NNW 3 mph 4 mph 65% 0.00 in 482 W/m2
09:20 55.6 °F 44 °F 29.93 in NNE 4 mph 4 mph 65% 0.00 in 492 W/m2
09:25 55.8 °F 44.2 °F 29.93 in NW 3 mph 6 mph 65% 0.00 in 508 W/m2
09:30 55.9 °F 43.9 °F 29.93 in NW 4 mph 4 mph 64% 0.00 in 524 W/m2
09:35 56 °F 44 °F 29.93 in NW 4 mph 4 mph 64% 0.00 in 534 W/m2
09:40 56.1 °F 44.1 °F 29.93 in NNW 4 mph 4 mph 64% 0.00 in 547 W/m2
09:45 56.3 °F 44.3 °F 29.93 in NNE 3 mph 4 mph 64% 0.00 in 561 W/m2
09:50 56.4 °F 44 °F 29.93 in North 2 mph 2 mph 63% 0.00 in 573 W/m2
09:55 56.6 °F 44.6 °F 29.93 in NW 2 mph 3 mph 64% 0.00 in 585 W/m2
10:00 56.7 °F 44.2 °F 29.93 in NE 2 mph 2 mph 63% 0.00 in 599 W/m2
10:05 56.9 °F 44 °F 29.93 in South 2 mph 2 mph 62% 0.00 in 612 W/m2
10:10 57.1 °F 44.6 °F 29.93 in NW 2 mph 4 mph 63% 0.00 in 621 W/m2
10:15 57.2 °F 44.3 °F 29.93 in NW 2 mph 4 mph 62% 0.00 in 636 W/m2
10:20 57.3 °F 44 °F 29.93 in SW 3 mph 3 mph 61% 0.00 in 645 W/m2
10:25 57.5 °F 44.1 °F 29.93 in WNW 2 mph 4 mph 61% 0.00 in 657 W/m2
10:30 57.5 °F 44.1 °F 29.93 in WNW 2 mph 2 mph 61% 0.00 in 670 W/m2
10:35 57.8 °F 45.3 °F 29.93 in West 2 mph 5 mph 63% 0.00 in 682 W/m2
10:40 57.9 °F 44.5 °F 29.93 in NW 2 mph 2 mph 61% 0.00 in 691 W/m2
10:45 58 °F 45.5 °F 29.93 in South 3 mph 3 mph 63% 0.00 in 703 W/m2
10:50 58.1 °F 44.7 °F 29.93 in NNW 3 mph 3 mph 61% 0.00 in 712 W/m2
10:55 58.4 °F 46.7 °F 29.93 in SSW 3 mph 3 mph 65% 0.00 in 722 W/m2
11:00 58.4 °F 45.4 °F 29.93 in WSW 3 mph 4 mph 62% 0.00 in 735 W/m2
11:05 58.4 °F 46.3 °F 29.93 in SSW 3 mph 4 mph 64% 0.00 in 744 W/m2
11:10 58.6 °F 46.5 °F 29.93 in SSW 3 mph 4 mph 64% 0.00 in 754 W/m2
11:15 58.7 °F 46.5 °F 29.93 in West 3 mph 4 mph 64% 0.00 in 763 W/m2
11:20 58.8 °F 46.2 °F 29.93 in SW 3 mph 4 mph 63% 0.00 in 773 W/m2
11:25 58.9 °F 45.9 °F 29.93 in South 3 mph 4 mph 62% 0.00 in 780 W/m2
11:30 59.1 °F 46.5 °F 29.93 in WSW 3 mph 3 mph 63% 0.00 in 791 W/m2
11:35 59.2 °F 46.2 °F 29.92 in SW 3 mph 3 mph 62% 0.00 in 800 W/m2
11:40 59.3 °F 46.3 °F 29.93 in ESE 3 mph 3 mph 62% 0.00 in 809 W/m2
11:45 59.2 °F 45.8 °F 29.93 in WSW 3 mph 3 mph 61% 0.00 in 816 W/m2
11:50 59.5 °F 46.5 °F 29.93 in SW 3 mph 4 mph 62% 0.00 in 821 W/m2
11:55 59.6 °F 45.7 °F 29.93 in ESE 3 mph 4 mph 60% 0.00 in 830 W/m2
12:00 59.9 °F 45.5 °F 29.93 in West 3 mph 3 mph 59% 0.00 in 838 W/m2
12:05 60.2 °F 45.8 °F 29.93 in South 3 mph 5 mph 59% 0.00 in 846 W/m2
12:10 60.4 °F 46 °F 29.93 in West 3 mph 8 mph 59% 0.00 in 853 W/m2
12:15 60.7 °F 45.8 °F 29.93 in West 3 mph 8 mph 58% 0.00 in 860 W/m2
12:20 61 °F 46.1 °F 29.93 in NW 3 mph 3 mph 58% 0.00 in 861 W/m2
12:25 61.3 °F 46.4 °F 29.93 in WNW 3 mph 3 mph 58% 0.00 in 868 W/m2
12:30 61.6 °F 46.7 °F 29.92 in SSE 3 mph 4 mph 58% 0.00 in 875 W/m2
12:35 60.9 °F 47.4 °F 29.92 in SSW 3 mph 4 mph 61% 0.00 in 881 W/m2
12:40 59.9 °F 46 °F 29.92 in SSW 2 mph 3 mph 60% 0.00 in 893 W/m2
12:45 60.5 °F 46.5 °F 29.92 in WSW 2 mph 3 mph 60% 0.00 in 921 W/m2
12:50 61 °F 48.3 °F 29.92 in South 3 mph 3 mph 63% 0.00 in 954 W/m2
12:55 61.3 °F 45.9 °F 29.92 in ENE 3 mph 3 mph 57% 0.00 in 1021 W/m2
13:00 60.8 °F 47.3 °F 29.92 in WSW 2 mph 2 mph 61% 0.00 in 283 W/m2
13:05 60.8 °F 47.3 °F 29.92 in West 3 mph 3 mph 61% 0.00 in 283 W/m2
13:10 60.8 °F 47.3 °F 29.92 in South 2 mph 2 mph 61% 0.00 in 457 W/m2
13:15 60.4 °F 46 °F 29.91 in NE 2 mph 2 mph 59% 0.00 in 524 W/m2
13:20 61 °F 47.4 °F 29.91 in ESE 2 mph 2 mph 61% 0.00 in 1199 W/m2
13:25 62.3 °F 48.2 °F 29.91 in South 2 mph 2 mph 60% 0.00 in 566 W/m2
13:30 62 °F 48.4 °F 29.91 in SSE 2 mph 4 mph 61% 0.00 in 809 W/m2
13:35 61.8 °F 48.6 °F 29.91 in SSE 2 mph 4 mph 62% 0.00 in 519 W/m2
13:40 61.6 °F 48 °F 29.91 in WNW 2 mph 2 mph 61% 0.00 in 519 W/m2
13:45 61.4 °F 47.8 °F 29.91 in WSW 2 mph 2 mph 61% 0.00 in 306 W/m2
13:50 61.6 °F 48 °F 29.91 in WSW 2 mph 5 mph 61% 0.00 in 267 W/m2
13:55 61.8 °F 47.3 °F 29.91 in SSW 2 mph 5 mph 59% 0.00 in 302 W/m2
14:00 61.8 °F 48.2 °F 29.91 in West 3 mph 3 mph 61% 0.00 in 329 W/m2
14:05 61.8 °F 48.6 °F 29.91 in South 3 mph 3 mph 62% 0.00 in 334 W/m2
14:10 61.9 °F 48.7 °F 29.91 in SW 3 mph 3 mph 62% 0.00 in 306 W/m2
14:15 62 °F 49.7 °F 29.92 in WSW 4 mph 6 mph 64% 0.00 in 174 W/m2
14:20 61.3 °F 49.4 °F 29.92 in NNE 6 mph 8 mph 65% 0.00 in 181 W/m2
14:25 60.1 °F 48.7 °F 29.92 in WSW 8 mph 8 mph 66% 0.00 in 151 W/m2
14:30 59.1 °F 48.5 °F 29.93 in West 8 mph 10 mph 68% 0.00 in 109 W/m2
14:35 58.3 °F 48.6 °F 29.93 in West 8 mph 10 mph 70% 0.00 in 95 W/m2
14:40 57.6 °F 48.6 °F 29.93 in SSW 7 mph 7 mph 72% 0.00 in 70 W/m2
14:45 56.8 °F 48.6 °F 29.93 in WNW 7 mph 7 mph 74% 0.00 in 56 W/m2
14:50 56.3 °F 48.5 °F 29.94 in WNW 6 mph 8 mph 75% 0.00 in 58 W/m2
14:55 55.8 °F 48 °F 29.93 in SSE 7 mph 8 mph 75% 0.00 in 54 W/m2
15:00 55.5 °F 48.1 °F 29.93 in West 6 mph 7 mph 76% 0.00 in 47 W/m2
15:05 55.4 °F 48.7 °F 29.93 in West 5 mph 7 mph 78% 0.05 in 56 W/m2
Sand Point, Michigan, USA
Compliments of Weather Underground - 2 mb